Regional Weather Roundup
Issued by NWS Jackson, KY

Home | Current Version | Previous Version | Graphics & Text | Print | Product List | Glossary On
Versions: 1 2 3 4 5 6 7 8 9 10 11 12 13 14 15 16 17 18 19 20 21 22 23 24 25 26 27 28 29 30 31 32 33 34 35 36 37 38 39 40 41 42 43 44 45 46 47 48 49 50
000
ASUS43 KJKL 221610
RWRJKL

EAST KENTUCKY HOURLY WEATHER ROUNDUP
NATIONAL WEATHER SERVICE JACKSON KY
1200 PM EDT FRI MAY 22 2015

NOTE: "FAIR" INDICATES FEW OR NO CLOUDS BELOW 12,000 FEET WITH
NO SIGNIFICANT WEATHER AND/OR OBSTRUCTIONS TO VISIBILITY.

* THESE REPORTS ARE NOT UNDER NWS QUALITY CONTROL AND MAY NOT
  REPORT WEATHER SUCH AS PRECIPITATION AND FOG.

KYZ079-080-083-085-087-088-110-112-115-119-120-221700
...EASTERN KENTUCKY...

CITY           SKY/WX    TMP DP  RH WIND       PRES   REMARKS
JACKSON        SUNNY     61  49  64 VRB5      30.29S
LONDON         MOSUNNY   62  41  46 VRB5      30.31R
SOMERSET*      SUNNY     61  45  55 S3        30.33S
MONTICELLO*    SUNNY     65  47  52 NW6       30.34S
MIDDLESBORO*   SUNNY     62  45  54 E6        30.32S
HARLAN APT*    MOSUNNY   61  43  51 W3        30.30S
BIG SANDY*     MOSUNNY   60  49  65 W7        30.29R
MOREHEAD APT*  SUNNY     64  46  52 VRB6      30.30R
$$

KYZ035-036-041-042-044-050-067-078-099-221700
...CENTRAL KENTUCKY...

CITY           SKY/WX    TMP DP  RH WIND       PRES   REMARKS
MT STERLING*   SUNNY     64  46  52 W8        30.30S
DANVILLE*      SUNNY     63  45  51 SW3       30.31S
RICHMOND*      SUNNY     63  46  55 W3        30.29S
LEXINGTON      SUNNY     64  46  52 W9        30.28R
FRANKFORT      SUNNY     65  45  48 W7        30.27R
$$

KYZ091>093-OHZ055-061-077-WVZ005-015-034-035-042-221700
...SOUTHERN OHIO/WEST VIRGINIA...

CITY           SKY/WX    TMP DP  RH WIND       PRES   REMARKS
COVINGTON      SUNNY     68  49  50 W10       30.23
COLUMBUS       MOSUNNY   65  47  52 W9        30.18S
DAYTON         MOSUNNY   69  49  48 W9G21     30.20R
WILMINGTON     SUNNY     66  46  48 W10       30.21S
HUNTINGTON     SUNNY     64  48  56 VRB6      30.25S
CHARLESTON     MOSUNNY   63  47  55 SW7       30.25S
PINEVILLE*     MOSUNNY   58  46  63 MISG      30.32F
BECKLEY        MOSUNNY   57  41  55 W13       30.27R
BLUEFIELD      MOSUNNY   55  41  59 W6        30.28F
$$

VAZ002-007-008-TNZ017-027-036-066-071-221700
...SOUTHWEST VIRGINIA/EAST TENNESSEE...

CITY           SKY/WX    TMP DP  RH WIND       PRES   REMARKS
WISE*          SUNNY     55  41  58 NE6       30.31R
JONESVILLE*    SUNNY     59  43  55 N5        30.33R
ABINGDON*      MOSUNNY   61  42  50 CALM      30.30R
BRISTOL        MOSUNNY   62  40  44 VRB6      30.29S
KNOXVILLE      MOSUNNY   65  43  44 NE9       30.29R
OAK RIDGE      SUNNY     65  42  43 E10       30.31S
CROSSVILLE     SUNNY     60  43  53 NE9       30.32R
NASHVILLE      PTSUNNY   66  45  46 NE8       30.31F
$$

...KEY TO REMARKS...
VSB - VISIBILITY IN MILES
WCI - WIND CHILL INDEX
HX  - HEAT INDEX

$$



USA.gov is the U.S. government's official web portal to all federal, state and local government web resources and services.